TimeEDT,TemperatureF,Dew PointF,Humidity,Sea Level PressureIn,VisibilityMPH,Wind Direction,Wind SpeedMPH,Gust SpeedMPH,PrecipitationIn,Events,Conditions,WindDirDegrees,DateUTC
12:25 AM,23.7,19.4,84,29.46,-9999.0,Variable,4.6,18.4,N/A,,Unknown,0,2013-03-23 04:25:00
1:25 AM,23.4,19.0,84,29.44,-9999.0,Variable,6.9,18.4,N/A,,Unknown,0,2013-03-23 05:25:00
2:26 AM,23.2,19.0,84,29.42,-9999.0,WSW,6.9,16.1,N/A,,Unknown,240,2013-03-23 06:26:00
3:25 AM,23.5,19.0,83,29.39,-9999.0,Variable,5.8,16.1,N/A,,Unknown,0,2013-03-23 07:25:00
4:25 AM,23.5,18.7,82,29.38,-9999.0,Variable,4.6,15.0,N/A,,Unknown,0,2013-03-23 08:25:00
5:25 AM,23.5,18.7,82,29.37,-9999.0,Variable,5.8,18.4,N/A,,Unknown,0,2013-03-23 09:25:00
6:25 AM,23.5,18.5,81,29.37,-9999.0,SW,8.1,18.4,N/A,,Unknown,230,2013-03-23 10:25:00
7:25 AM,23.5,18.5,81,29.37,-9999.0,Variable,3.5,15.0,N/A,,Unknown,0,2013-03-23 11:25:00
8:25 AM,25.3,19.0,77,29.36,-9999.0,WSW,6.9,20.7,N/A,,Unknown,240,2013-03-23 12:25:00
9:25 AM,27.5,19.2,71,29.36,-9999.0,SW,8.1,17.3,N/A,,Unknown,230,2013-03-23 13:25:00
10:26 AM,30.4,19.9,65,29.36,-9999.0,Variable,4.6,17.3,N/A,,Unknown,0,2013-03-23 14:26:00
11:25 AM,30.9,19.0,61,29.36,-9999.0,WSW,9.2,18.4,N/A,,Unknown,250,2013-03-23 15:25:00
12:25 PM,32.9,21.0,62,29.37,-9999.0,Variable,3.5,17.3,N/A,,Unknown,0,2013-03-23 16:25:00
1:27 PM,33.3,21.7,63,29.38,-9999.0,West,6.9,18.4,N/A,,Unknown,260,2013-03-23 17:27:00
2:25 PM,32.7,23.7,69,29.39,-9999.0,SW,8.1,18.4,N/A,,Unknown,230,2013-03-23 18:25:00
3:30 PM,33.8,25.0,70,29.41,-9999.0,Variable,6.9,16.1,N/A,,Unknown,0,2013-03-23 19:30:00
4:25 PM,34.2,25.7,71,29.42,-9999.0,WSW,8.1,20.7,N/A,,Unknown,240,2013-03-23 20:25:00
5:33 PM,33.8,27.0,76,29.44,-9999.0,Variable,5.8,17.3,N/A,,Unknown,0,2013-03-23 21:33:00
6:25 PM,31.5,28.9,90,29.47,-9999.0,Variable,5.8,13.8,N/A,,Unknown,0,2013-03-23 22:25:00
7:25 PM,-9999,-9999,N/A,29.50,-9999.0,Variable,4.6,13.8,0.07,,Unknown,0,2013-03-23 23:25:00
8:28 PM,-9999,-9999,N/A,29.53,-9999.0,Variable,3.5,12.7,0.01,,Unknown,0,2013-03-24 00:28:00
9:25 PM,-9999,-9999,N/A,29.56,-9999.0,Variable,4.6,11.5,0.00,,Unknown,0,2013-03-24 01:25:00
10:27 PM,-9999,-9999,N/A,29.58,-9999.0,Variable,3.5,-,N/A,,Unknown,0,2013-03-24 02:27:00
11:26 PM,-9999,-9999,N/A,29.59,-9999.0,Variable,2.3,-,N/A,,Unknown,0,2013-03-24 03:26:00